Overview Statistics Trail Chart Weather Telemetry Raw packets
 

This is the latest recevied weather packets stored in our database for station/object KO4LCK. If no packets are shown the sender has not sent any weather packets the latest 10 day(s).

<< 12 13 14 15 16 17 18 >>
Time Temp. Humidity Pressure Rain* Wind** Luminosity Snow
1788563797 33.33° C 52% 1015.1 hPa 0 mm - 44 W/m² -
1788563493 33.89° C 52% 1014.9 hPa 0 mm - 60 W/m² -
1788563192 33.89° C 52% 1015.2 hPa 0 mm - 64 W/m² -
1788562888 34.44° C 51% 1015 hPa 0 mm - 73 W/m² -
1788562585 34.44° C 51% 1014.9 hPa 0 mm - 79 W/m² -
1788562280 34.44° C 50% 1014.9 hPa 0 mm - 87 W/m² -
1788561975 34.44° C 50% 1015 hPa 0 mm - 93 W/m² -
1788561670 34.44° C 49% 1014.9 hPa 0 mm - 86 W/m² -
1788561369 35° C 49% 1015.1 hPa 0 mm - 114 W/m² -
1788561064 35.56° C 48% 1015 hPa 0 mm - 113 W/m² -
1788560760 36.11° C 46% 1015 hPa 0 mm - 155 W/m² -
1788560456 36.67° C 45% 1014.6 hPa 0 mm - 136 W/m² -
1788560155 36.67° C 44% 1014.7 hPa 0 mm - 188 W/m² -
1788559850 36.67° C 45% 1014.6 hPa 0 mm - 219 W/m² -
1788559550 37.22° C 44% 1014.7 hPa 0 mm - 221 W/m² -
1788559245 37.22° C 45% 1014.6 hPa 0 mm - 230 W/m² -
1788558940 37.22° C 44% 1014.7 hPa 0 mm - 244 W/m² -
1788558636 37.22° C 43% 1014.8 hPa 0 mm - 259 W/m² -
1788558331 37.22° C 43% 1014.9 hPa 0 mm - 262 W/m² -
1788558027 37.22° C 43% 1014.7 hPa 0 mm - 277 W/m² -
1788557724 36.67° C 45% 1014.8 hPa 0 mm - 294 W/m² -
1788557422 36.67° C 44% 1015 hPa 0 mm - 299 W/m² -
1788557121 36.67° C 43% 1015 hPa 0 mm - 314 W/m² -
1788556816 36.67° C 44% 1014.7 hPa 0 mm - 333 W/m² -
1788556516 36.67° C 45% 1014.9 hPa 0 mm - 341 W/m² -

* Rain latest hour (hover to see other rain measurements)
** Current wind speed in m/s (hover to see current wind gust speed)